This is the latest recevied weather packets stored in our database for station/object KD8FRE. If no packets are shown the sender has not sent any weather packets the latest 10 day(s).
| Time | Temp. | Humidity | Pressure | Rain* | Wind** | Luminosity | Snow |
|---|---|---|---|---|---|---|---|
| 1777998669 | 10.56° C | 72% | 1007.4 hPa | 0 mm | - | 134 W/m² | - |
| 1777998366 | 10.56° C | 73% | 1007.6 hPa | 0 mm | - | 154 W/m² | - |
| 1777998064 | 10.56° C | 76% | 1007.6 hPa | 0 mm | - | 155 W/m² | - |
| 1777997761 | 10.56° C | 80% | 1007.6 hPa | 0 mm | - | 162 W/m² | - |
| 1777997458 | 10.56° C | 80% | 1007.6 hPa | 0 mm | - | 119 W/m² | - |
| 1777997156 | 10.56° C | 79% | 1007.6 hPa | 0 mm | - | 98 W/m² | - |
| 1777996853 | 10.56° C | 81% | 1007.6 hPa | 0 mm | - | 163 W/m² | - |
| 1777996549 | 10.56° C | 80% | 1007.7 hPa | 0 mm | - | 125 W/m² | - |
| 1777996245 | 10° C | 80% | 1007.5 hPa | 0 mm | - | 74 W/m² | - |
| 1777995941 | 10° C | 78% | 1007.4 hPa | 0 mm | - | 100 W/m² | - |
| 1777995638 | 10° C | 78% | 1007.4 hPa | 0 mm | - | 92 W/m² | - |
| 1777995335 | 10.56° C | 77% | 1007.3 hPa | 0 mm | - | 98 W/m² | - |
| 1777995032 | 10.56° C | 75% | 1007.5 hPa | 0 mm | - | 80 W/m² | - |
| 1777994729 | 10.56° C | 74% | 1007.5 hPa | 0 mm | - | 73 W/m² | - |
| 1777994425 | 11.11° C | 72% | 1007.3 hPa | 0 mm | - | 74 W/m² | - |
| 1777994120 | 11.67° C | 71% | 1007.5 hPa | 0 mm | - | 99 W/m² | - |
| 1777993818 | 11.67° C | 70% | 1007.2 hPa | 0 mm | - | 88 W/m² | - |
| 1777993514 | 11.67° C | 70% | 1006.9 hPa | 0 mm | - | 82 W/m² | - |
| 1777993210 | 12.22° C | 69% | 1006.8 hPa | 0 mm | - | 80 W/m² | - |
| 1777992906 | 12.22° C | 67% | 1006.5 hPa | 0 mm | - | 87 W/m² | - |
| 1777992605 | 12.22° C | 66% | 1006.6 hPa | 0 mm | - | 98 W/m² | - |
| 1777992302 | 12.22° C | 66% | 1006.6 hPa | 0 mm | - | 89 W/m² | - |
| 1777991999 | 12.22° C | 64% | 1006.4 hPa | 0 mm | - | 100 W/m² | - |
| 1777991697 | 12.22° C | 65% | 1006.4 hPa | 0 mm | - | 74 W/m² | - |
| 1777991394 | 12.22° C | 61% | 1006.3 hPa | 0 mm | - | 84 W/m² | - |
* Rain latest hour (hover to see other rain measurements)
** Current wind speed in m/s (hover to see current wind gust speed)